Change the Weather History Date:

Wednesday, January 23, 2013

  Actual Average Record
Temperature  
Mean Temperature 80 °F -  
Max Temperature 84 °F 88 °F 91 °F (2000)
Min Temperature 76 °F 74 °F 71 °F (1999)
Cooling Degree Days 15    
Growing Degree Days 30 (Base 50)    
Moisture  
Dew Point 77 °F    
Average Humidity 91    
Maximum Humidity 100    
Minimum Humidity 79    
Precipitation  
Precipitation 0.91 in 0.55 in - ()
Sea Level Pressure  
Sea Level Pressure 29.35 in    
Wind  
Wind Speed 14 mph ()    
Max Wind Speed 26 mph    
Max Gust Speed 37 mph    
Visibility 4.2 miles    
Events Rain    
Averages and records for this station are not official NWS values.
T = Trace of Precipitation, MM = Missing Value Source: Averaged Metar Reports

Daily Weather History Graph

Daily Weather History Graph

Search for Another Location

Airport or City:

Trip Planner

Search our weather history database for the weather conditions in past years. The results will help you decide how hot, cold, wet, or windy it might be!

Date:

Astronomy

Jan. 23, 2013 Rise Set
Actual Time 6:00 AM AEST 6:57 PM AEST
Civil Twilight 5:37 AM AEST 7:20 PM AEST
Nautical Twilight 5:09 AM AEST 7:47 PM AEST
Astronomical Twilight 4:41 AM AEST 8:15 PM AEST
Moon 3:48 PM AEST (1/23) 2:28 AM AEST (1/23)
Length of Visible Light 13h 43m
Length of Day
12h 56m
Waxing Gibbous, 85% of the Moon is Illuminated
Jan 23
Waxing Gibbous
Jan 27
Full
Feb 3
Last Quarter
Feb 10
New
Feb 18
First Quarter

Hourly Weather History & Observations

Time (AEST) Temp. Heat Index Dew Point Humidity Pressure Visibility Wind Dir Wind Speed Gust Speed Precip Events Conditions
12:00 AM 79 °F - 76 °F 90% 29.48 in 6 mi SE 16.1 mph - -  
12:00 AM 78.8 °F - 77.0 °F 94% 29.47 in 6.2 mi SE 16.1 mph - N/A   Mostly Cloudy
12:30 AM 78.8 °F - 77.0 °F 94% 29.44 in 3.7 mi ESE 12.7 mph - N/A Rain Light Rain
1:00 AM 78 °F - 76 °F 93% 29.44 in - SSE 13.8 mph - -  
1:00 AM 78.8 °F - 77.0 °F 94% 29.42 in 5.0 mi SSE 13.8 mph - N/A Rain Light Rain
1:30 AM 78.8 °F - 77.0 °F 94% 29.42 in 4.3 mi ESE 17.3 mph - N/A Rain Light Rain
2:00 AM 78.8 °F - 77.0 °F 94% 29.39 in 3.7 mi SE 16.1 mph - N/A Rain Light Rain
2:30 AM 78.8 °F - 77.0 °F 94% 29.39 in 6.2 mi SE 15.0 mph - N/A   Mostly Cloudy
2:53 AM 78.8 °F - 77.0 °F 94% 29.39 in 2.5 mi SE 13.8 mph - N/A Rain Rain
3:00 AM 78 °F - 77 °F 96% 29.38 in 2 mi SE 15.0 mph - -   Overcast
3:00 AM 78.8 °F - 77.0 °F 94% 29.39 in 2.5 mi SE 15.0 mph - N/A Rain Rain
3:30 AM 78.8 °F - 77.0 °F 94% 29.36 in 5.6 mi SE 12.7 mph - N/A Rain Light Rain
4:00 AM 78 °F - 76 °F 90% 29.37 in - ESE 18.4 mph - -  
4:00 AM 78.8 °F - 75.2 °F 89% 29.36 in 6.2 mi ESE 18.4 mph - N/A   Mostly Cloudy
4:14 AM 78.8 °F - 75.2 °F 89% 29.36 in 2.5 mi ESE 16.1 mph - N/A Rain Rain
4:30 AM 78.8 °F - 77.0 °F 94% 29.36 in 2.5 mi SE 18.4 mph - N/A Rain Rain
5:00 AM 78.8 °F - 77.0 °F 94% 29.36 in 2.5 mi ENE 10.4 mph - N/A Rain Light Rain
5:17 AM 78.8 °F - 77.0 °F 94% 29.36 in 5.6 mi ENE 13.8 mph - N/A   Mostly Cloudy
5:30 AM 78.8 °F - 77.0 °F 94% 29.36 in 6.2 mi East 9.2 mph - N/A   Mostly Cloudy
5:39 AM 78.8 °F - 77.0 °F 94% 29.36 in 1.9 mi East 9.2 mph - N/A Rain Rain Showers
6:00 AM 78 °F - 77 °F 95% 29.38 in 4 mi ESE 10.4 mph - -   Overcast
6:00 AM 78.8 °F - 77.0 °F 94% 29.36 in 6.2 mi ESE 10.4 mph - N/A   Mostly Cloudy
6:30 AM 80.6 °F 87.1 °F 77.0 °F 89% 29.39 in 3.1 mi East 10.4 mph - N/A Rain Rain Showers
7:00 AM 80 °F - 78 °F 91% 29.40 in - East 10.4 mph - -  
7:00 AM 80.6 °F 88.1 °F 78.8 °F 94% 29.39 in 2.5 mi East 10.4 mph - N/A Rain Light Rain
7:20 AM 80.6 °F 87.1 °F 77.0 °F 89% 29.39 in 3.7 mi ESE 11.5 mph - N/A Rain Light Rain
8:00 AM 80.6 °F 88.1 °F 78.8 °F 94% 29.39 in 3.1 mi ESE 15.0 mph 26.5 mph N/A Rain Light Rain
8:30 AM 80.6 °F 88.1 °F 78.8 °F 94% 29.36 in 2.5 mi East 15.0 mph - N/A Rain Rain
8:37 AM 78.8 °F - 78.8 °F 100% 29.39 in 1.2 mi East 17.3 mph 28.8 mph N/A Rain Rain
9:00 AM 80 °F - 79 °F 94% 29.38 in 2 mi East 16.1 mph - - Rain Rain
9:00 AM 80.6 °F 88.1 °F 78.8 °F 94% 29.36 in 2.5 mi East 16.1 mph - N/A Rain Rain
9:30 AM 80.6 °F 88.1 °F 78.8 °F 94% 29.36 in 3.7 mi ENE 13.8 mph - N/A Rain Light Rain
10:00 AM 82 °F - 78 °F 86% 29.39 in - NE 17.3 mph - -  
10:00 AM 82.4 °F 92.4 °F 78.8 °F 89% 29.39 in 5.0 mi NE 17.3 mph - N/A   Mostly Cloudy
10:30 AM 82.4 °F 92.4 °F 78.8 °F 89% 29.39 in 5.0 mi NNE 15.0 mph - N/A   Mostly Cloudy
11:00 AM 84.2 °F 96.1 °F 78.8 °F 84% 29.39 in 3.7 mi NNE 13.8 mph - N/A Rain Light Rain
11:30 AM 82.4 °F 92.4 °F 78.8 °F 89% 29.36 in 3.7 mi NNE 16.1 mph - N/A Rain Light Rain
12:00 PM 81 °F - 78 °F 87% 29.37 in 3 mi NNE 17.3 mph - -   Overcast
12:00 PM 80.6 °F 87.1 °F 77.0 °F 89% 29.36 in 3.1 mi NNE 17.3 mph - N/A   Mostly Cloudy
12:15 PM 80.6 °F 88.1 °F 78.8 °F 94% 29.36 in 2.5 mi NNE 18.4 mph - N/A Rain Light Rain
12:30 PM 82.4 °F 92.4 °F 78.8 °F 89% 29.36 in 4.3 mi NNE 13.8 mph 25.3 mph N/A Rain Light Rain
1:00 PM 82 °F - 78 °F 85% 29.36 in - NNE 13.8 mph - -  
1:00 PM 82.4 °F 92.4 °F 78.8 °F 89% 29.36 in 4.3 mi NNE 13.8 mph - N/A Rain Light Rain
1:49 PM 82.4 °F 90.9 °F 77.0 °F 84% 29.33 in 2.5 mi NNE 12.7 mph - N/A Rain Rain
2:00 PM 80.6 °F 88.1 °F 78.8 °F 94% 29.30 in 1.9 mi NE 11.5 mph - N/A Rain Rain
2:30 PM 80.6 °F 88.1 °F 78.8 °F 94% 29.30 in 6.2 mi North 11.5 mph - N/A Rain Light Rain
3:00 PM 82 °F - 78 °F 85% 29.31 in 12 mi NNE 11.5 mph - - Rain Light Drizzle
3:00 PM 82.4 °F 92.4 °F 78.8 °F 89% 29.30 in 6.2 mi NNE 11.5 mph - N/A   Mostly Cloudy
3:30 PM 82.4 °F 90.9 °F 77.0 °F 84% 29.30 in 6.2 mi NNE 12.7 mph - N/A   Mostly Cloudy
3:55 PM 82.4 °F 92.4 °F 78.8 °F 89% 29.27 in 4.3 mi NNE 13.8 mph - N/A Rain Light Rain
3:58 PM 82.4 °F 90.9 °F 77.0 °F 84% 29.27 in 2.5 mi NNE 12.7 mph - N/A Rain Light Rain Showers
4:00 PM 80 °F - 78 °F 91% 29.29 in - NNE 12.7 mph - -  
4:00 PM 80.6 °F 87.1 °F 77.0 °F 89% 29.27 in 3.7 mi NNE 12.7 mph - N/A Rain Light Rain Showers
4:15 PM 80.6 °F 88.1 °F 78.8 °F 94% 29.27 in 6.2 mi NNE 13.8 mph - N/A   Mostly Cloudy
4:30 PM 82.4 °F 92.4 °F 78.8 °F 89% 29.27 in 6.2 mi NE 15.0 mph - N/A   Mostly Cloudy
5:00 PM 80.6 °F 87.1 °F 77.0 °F 89% 29.27 in 6.2 mi NNE 13.8 mph - N/A   Mostly Cloudy
5:22 PM 80.6 °F 88.1 °F 78.8 °F 94% 29.27 in 3.7 mi NE 11.5 mph - N/A Rain Light Rain Showers
5:30 PM 80.6 °F 87.1 °F 77.0 °F 89% 29.27 in 6.2 mi NNE 13.8 mph - N/A   Mostly Cloudy
5:37 PM 80.6 °F 87.1 °F 77.0 °F 89% 29.27 in 6.2 mi North 15.0 mph - N/A   Scattered Clouds
6:00 PM 81 °F - 77 °F 83% 29.29 in 9 mi North 16.1 mph - - Rain Light Rain Showers
6:00 PM 80.6 °F 87.1 °F 77.0 °F 89% 29.30 in 6.2 mi North 16.1 mph - N/A   Mostly Cloudy
6:06 PM 82.4 °F 89.5 °F 75.2 °F 79% 29.30 in 6.2 mi North 17.3 mph 29.9 mph N/A   Mostly Cloudy
6:30 PM 82.4 °F 90.9 °F 77.0 °F 84% 29.30 in 6.2 mi North 17.3 mph - N/A   Mostly Cloudy
7:00 PM 81 °F - 77 °F 83% 29.32 in - North 20.7 mph - -  
7:00 PM 80.6 °F 87.1 °F 77.0 °F 89% 29.30 in 6.2 mi North 20.7 mph - N/A   Mostly Cloudy
7:30 PM 80.6 °F 87.1 °F 77.0 °F 89% 29.33 in 4.3 mi North 17.3 mph - N/A Rain Light Rain Showers
7:53 PM 80.6 °F 87.1 °F 77.0 °F 89% 29.33 in 3.7 mi North 17.3 mph 28.8 mph N/A Rain Light Rain Showers
8:00 PM 80.6 °F 87.1 °F 77.0 °F 89% 29.33 in 3.7 mi North 19.6 mph - N/A Rain Light Rain Showers
8:30 PM 78.8 °F - 77.0 °F 94% 29.33 in 1.9 mi North 19.6 mph - N/A Rain Light Rain Showers
9:00 PM 78 °F - 77 °F 97% 29.34 in 2 mi North 18.4 mph - - Rain Light Rain Showers
9:00 PM 78.8 °F - 77.0 °F 94% 29.33 in 1.9 mi North 18.4 mph - N/A Rain Light Rain Showers
9:05 PM 78.8 °F - 77.0 °F 94% 29.33 in 1.9 mi North 19.6 mph 32.2 mph N/A Rain Light Rain Showers
9:30 PM 78.8 °F - 77.0 °F 94% 29.33 in 2.5 mi North 21.9 mph - N/A Rain Light Rain Showers
10:00 PM 78 °F - 77 °F 94% 29.35 in - North 20.7 mph - -  
10:00 PM 78.8 °F - 77.0 °F 94% 29.33 in 3.1 mi North 20.7 mph - N/A Rain Light Rain
10:30 PM 78.8 °F - 77.0 °F 94% 29.33 in 3.7 mi North 19.6 mph - N/A   Mostly Cloudy
10:35 PM 78.8 °F - 77.0 °F 94% 29.33 in 5.6 mi North 20.7 mph 33.4 mph N/A   Mostly Cloudy
11:00 PM 78.8 °F - 77.0 °F 94% 29.33 in 3.1 mi North 26.5 mph - N/A Rain Light Rain Showers
11:08 PM 78.8 °F - 77.0 °F 94% 29.33 in 3.7 mi North 24.2 mph 36.8 mph N/A Rain Light Rain Showers
11:30 PM 80.6 °F 87.1 °F 77.0 °F 89% 29.30 in 6.2 mi North 24.2 mph 35.7 mph N/A   Mostly Cloudy